GW6386 Weather Reports


time (UTC)temp
C
wind
direction
speed
KPH
gust
KPH
rain 1hr
cm
rain 24hr
cm
rain mn
cm
humidity
%
barometer
mb
20260510203444 19 16 6.4 17.7 0.00 0.00 0.00 42 461.6
20260510202944 19 31 6.4 17.7 0.00 0.00 0.00 41 440.6
20260510202444 19 8 6.4 17.7 0.00 0.00 0.00 44 431.4
20260510201943 19 39 6.4 17.7 0.00 0.00 0.00 41 425.5
20260510201441 19 19 6.4 19.3 0.00 0.00 0.00 42 500.5
20260510200941 19 22 4.8 19.3 0.00 0.00 0.00 41 394.0
20260510200439 19 40 4.8 19.3 0.00 0.00 0.00 40 463.5
20260510195939 19 8 4.8 19.3 0.00 0.00 0.00 41 502.8
20260510195439 19 9 6.4 19.3 0.00 0.00 0.00 43 476.8
20260510194939 19 30 3.2 19.3 0.00 0.00 0.00 41 381.9
20260510194438 19 35 6.4 19.3 0.00 0.00 0.00 39 376.1
20260510193937 19 46 3.2 19.3 0.00 0.00 0.00 42 374.8
20260510193436 19 27 3.2 19.3 0.00 0.00 0.00 41 352.4
20260510192420 19 25 6.4 19.3 0.00 0.00 0.00 40 438.1
20260510191919 19 30 8.0 19.3 0.00 0.00 0.00 39 515.2
20260510191417 19 13 6.4 17.7 0.00 0.00 0.00 40 627.0
20260510190916 19 0 3.2 17.7 0.00 0.00 0.00 41 680.7
20260510185901 18 9 6.4 17.7 0.00 0.00 0.00 42 468.4
20260510184844 19 29 6.4 17.7 0.00 0.00 0.00 39 419.3
20260510184343 19 31 6.4 17.7 0.00 0.00 0.00 41 424.7
20260510183843 19 29 6.4 17.7 0.00 0.00 0.00 40 481.1
20260510183342 19 24 6.4 19.3 0.00 0.00 0.00 39 536.1
20260510182842 19 5 3.2 19.3 0.00 0.00 0.00 40 651.7
20260510181840 19 25 6.4 19.3 0.00 0.00 0.00 41 520.1
20260510181339 19 24 8.0 19.3 0.00 0.00 0.00 40 558.6
20260510180838 18 4 6.4 19.3 0.00 0.00 0.00 41 562.6
20260510180338 18 27 6.4 19.3 0.00 0.00 0.00 40 461.3
20260510175837 19 27 8.0 19.3 0.00 0.00 0.00 38 505.5
20260510174820 19 355 4.8 19.3 0.00 0.00 0.00 39 597.8
20260510173803 20 7 8.0 22.5 0.00 0.00 0.00 38 568.5
20260510172746 20 353 8.0 24.1 0.00 0.00 0.00 40 538.4
20260510172245 20 30 9.7 24.1 0.00 0.00 0.00 38 444.2
20260510171744 19 20 9.7 24.1 0.00 0.00 0.00 37 402.0
20260510171243 19 31 8.0 20.9 0.00 0.00 0.00 38 391.1
20260510170742 19 31 9.7 20.9 0.00 0.00 0.00 38 422.4
20260510170242 19 25 6.4 19.3 0.00 0.00 0.00 39 426.5
20260510165741 19 44 8.0 19.3 0.00 0.00 0.00 39 366.5
20260510165240 19 26 8.0 19.3 0.00 0.00 0.00 39 361.1
20260510164739 19 20 8.0 19.3 0.00 0.00 0.00 39 395.9
20260510163722 18 50 11.3 29.0 0.00 0.00 0.00 36 351.8
20260510163221 18 49 8.0 19.3 0.00 0.00 0.00 39 391.3
20260510162721 18 27 4.8 19.3 0.00 0.00 0.00 41 390.7
20260510162220 18 34 6.4 19.3 0.00 0.00 0.00 37 373.0
20260510161719 19 36 8.0 22.5 0.00 0.00 0.00 37 381.6
20260510161218 19 19 8.0 22.5 0.00 0.00 0.00 39 406.3
20260510160717 18 40 8.0 20.9 0.00 0.00 0.00 40 379.1
20260510160214 18 23 8.0 22.5 0.00 0.00 0.00 39 428.5
20260510155714 18 28 9.7 22.5 0.00 0.00 0.00 40 415.5
20260510155213 17 31 8.0 24.1 0.00 0.00 0.00 41 389.1
20260510154712 17 27 6.4 24.1 0.00 0.00 0.00 41 376.4
20260510154211 17 55 6.4 19.3 0.00 0.00 0.00 43 367.1
20260510153711 17 30 9.7 22.5 0.00 0.00 0.00 44 380.9
20260510152705 17 17 6.4 22.5 0.00 0.00 0.00 43 403.2
20260510152204 17 39 6.4 22.5 0.00 0.00 0.00 42 357.4
20260510151703 17 37 11.3 20.9 0.00 0.00 0.00 42 342.1
20260510151202 17 28 8.0 24.1 0.00 0.00 0.00 45 361.3
20260510150702 17 31 11.3 24.1 0.00 0.00 0.00 44 356.3
20260510150202 17 55 4.8 20.9 0.00 0.00 0.00 45 330.1
20260510145658 16 43 6.4 20.9 0.00 0.00 0.00 45 320.3
20260510145157 16 48 8.0 20.9 0.00 0.00 0.00 44 354.6
20260510144140 16 39 6.4 20.9 0.00 0.00 0.00 46 409.2
20260510143639 15 28 8.0 20.9 0.00 0.00 0.00 46 334.7
20260510143138 15 41 9.7 20.9 0.00 0.00 0.00 45 369.4
20260510142637 15 35 9.7 19.3 0.00 0.00 0.00 46 353.2
20260510141620 15 42 8.0 20.9 0.00 0.00 0.00 47 464.3
20260510141119 15 6 4.8 20.9 0.00 0.00 0.00 50 383.2
20260510140618 15 43 8.0 19.3 0.00 0.00 0.00 47 393.7
20260510140117 15 13 4.8 19.3 0.00 0.00 0.00 48 426.4
20260510135616 15 37 6.4 19.3 0.00 0.00 0.00 49 400.6
20260510135115 15 27 6.4 19.3 0.00 0.00 0.00 52 295.3
20260510134614 15 27 6.4 19.3 0.00 0.00 0.00 52 310.5
20260510134113 15 29 6.4 19.3 0.00 0.00 0.00 51 371.1
20260510133056 15 50 6.4 19.3 0.00 0.00 0.00 51 325.9
20260510132040 15 65 4.8 19.3 0.00 0.00 0.00 51 393.5
20260510131539 15 29 6.4 19.3 0.00 0.00 0.00 51 390.6
20260510130523 15 30 4.8 22.5 0.00 0.00 0.00 52 421.1
20260510130023 15 34 6.4 20.9 0.00 0.00 0.00 54 308.1
20260510125522 15 39 8.0 20.9 0.00 0.00 0.00 54 310.5
20260510125021 15 36 4.8 17.7 0.00 0.00 0.00 55 312.2
20260510124520 14 39 8.0 17.7 0.00 0.00 0.00 55 342.4
20260510124019 14 42 4.8 19.3 0.00 0.00 0.00 56 423.3
20260510123518 14 27 6.4 19.3 0.00 0.00 0.00 57 359.7
20260510123018 14 21 4.8 19.3 0.00 0.00 0.00 58 372.0
20260510122517 14 20 4.8 19.3 0.00 0.00 0.00 58 407.4
20260510122017 14 26 8.0 20.9 0.00 0.00 0.00 59 365.0
20260510121517 14 31 6.4 20.9 0.00 0.00 0.00 60 360.5
20260510121016 14 354 4.8 20.9 0.00 0.00 0.00 61 426.7
20260510120515 14 22 6.4 20.9 0.00 0.00 0.00 61 368.8
20260510120014 14 38 3.2 17.7 0.00 0.00 0.00 62 315.7
20260510115513 13 34 6.4 17.7 0.00 0.00 0.00 62 333.2
20260510115012 13 31 9.7 17.7 0.00 0.00 0.00 63 331.8
20260510114511 13 39 6.4 17.7 0.00 0.00 0.00 64 350.8
20260510114010 13 50 4.8 17.7 0.00 0.00 0.00 65 301.3
20260510113509 13 47 4.8 17.7 0.00 0.00 0.00 65 285.4
20260510113009 14 43 4.8 17.7 0.00 0.00 0.00 65 272.7
20260510112508 14 32 6.4 17.7 0.00 0.00 0.00 66 280.4
20260510112007 14 46 6.4 17.7 0.00 0.00 0.00 66 285.3
20260510111507 14 33 6.4 17.7 0.00 0.00 0.00 66 300.2
20260510105936 14 39 4.8 17.7 0.00 0.00 0.00 68 273.5
20260510105436 14 36 4.8 17.7 0.00 0.00 0.00 68 265.7
20260510104419 13 38 4.8 17.7 0.00 0.00 0.00 70 260.8
20260510103402 13 20 3.2 17.7 0.00 0.00 0.00 71 244.1
20260510102901 13 32 6.4 17.7 0.00 0.00 0.00 72 255.5
20260510102400 13 29 4.8 17.7 0.00 0.00 0.00 72 243.6
20260510101900 13 24 4.8 17.7 0.00 0.00 0.00 73 242.7
20260510101400 13 34 3.2 17.7 0.00 0.00 0.00 73 256.3
20260510100859 14 43 4.8 17.7 0.00 0.00 0.00 73 271.9
20260510100358 14 38 1.6 17.7 0.00 0.00 0.00 73 248.1
20260510095857 14 25 0.0 17.7 0.00 0.00 0.00 72 230.5
20260510095356 14 30 1.6 17.7 0.00 0.00 0.00 73 225.6
20260510094855 14 22 0.0 17.7 0.00 0.00 0.00 72 216.4
20260510094354 15 19 0.0 17.7 0.00 0.00 0.00 71 214.0
20260510093853 15 19 0.0 17.7 0.00 0.00 0.00 70 214.8
20260510093352 15 19 0.0 17.7 0.00 0.00 0.00 69 216.6
20260510092851 15 19 0.0 17.7 0.00 0.00 0.00 69 219.9
20260510092351 15 19 0.0 17.7 0.00 0.00 0.00 68 226.2
20260510090819 16 43 1.6 17.7 0.00 0.00 0.00 67 274.7
20260510090318 16 44 1.6 17.7 0.00 0.00 0.00 66 264.0
20260510085817 16 29 1.6 17.7 0.00 0.00 0.00 66 239.9
20260510085316 16 24 1.6 17.7 0.00 0.00 0.00 66 249.5
20260510084815 16 39 3.2 17.7 0.00 0.00 0.00 66 278.9
20260510084314 16 28 3.2 17.7 0.00 0.00 0.00 66 292.0
20260510083813 16 29 4.8 17.7 0.00 0.00 0.00 66 305.0
20260510083312 16 33 4.8 17.7 0.00 0.00 0.00 67 277.9
20260510082811 16 22 4.8 17.7 0.00 0.00 0.00 67 299.6
20260510082311 16 28 3.2 17.7 0.00 0.00 0.00 67 327.3
20260510081810 16 40 3.2 17.7 0.00 0.00 0.00 67 416.9
20260510081309 16 18 4.8 17.7 0.00 0.00 0.00 67 289.4
20260510080808 16 26 6.4 17.7 0.00 0.00 0.00 67 301.4
20260510080307 16 36 3.2 17.7 0.00 0.00 0.00 68 276.1
20260510075806 16 34 4.8 17.7 0.00 0.00 0.00 68 296.8
20260510075306 16 35 3.2 17.7 0.00 0.00 0.00 69 262.0
20260510074805 16 48 3.2 17.7 0.00 0.00 0.00 68 274.7
20260510074304 16 33 4.8 17.7 0.00 0.00 0.00 69 261.9
20260510073804 16 39 3.2 17.7 0.00 0.00 0.00 68 257.6
20260510073303 17 11 3.2 17.7 0.00 0.00 0.00 69 256.7
20260510072802 17 29 3.2 17.7 0.00 0.00 0.00 69 295.9
20260510072305 17 21 4.8 17.7 0.00 0.00 0.00 69 348.7
20260510071802 17 30 3.2 17.7 0.00 0.00 0.00 69 283.2
20260510071301 17 47 3.2 17.7 0.00 0.00 0.00 69 280.3
20260510070800 17 16 3.2 17.7 0.00 0.00 0.00 69 269.0
20260510065744 17 54 0.0 17.7 0.00 0.00 0.00 70 315.0
20260510065243 17 54 1.6 17.7 0.00 0.00 0.00 69 315.0
20260510064742 17 54 0.0 17.7 0.00 0.00 0.00 68 314.8
20260510064241 18 54 0.0 17.7 0.00 0.00 0.00 68 314.7
20260510063740 18 54 0.0 17.7 0.00 0.00 0.00 68 314.5
20260510063240 18 53 0.0 17.7 0.00 0.00 0.00 67 314.6
20260510062739 18 53 0.0 17.7 0.00 0.00 0.00 67 314.8
20260510062239 18 53 1.6 17.7 0.00 0.00 0.00 66 314.9
20260510061739 18 53 0.0 17.7 0.00 0.00 0.00 65 314.9
20260510061239 18 53 0.0 17.7 0.00 0.00 0.00 65 315.4
20260510060222 18 53 1.6 17.7 0.00 0.00 0.00 64 316.7
20260510055721 18 53 1.6 17.7 0.00 0.00 0.00 64 318.3
20260510055220 18 55 1.6 17.7 0.00 0.00 0.00 63 320.4
20260510054719 18 56 0.0 17.7 0.00 0.00 0.00 64 320.5
20260510054219 18 55 1.6 17.7 0.00 0.00 0.00 62 320.0
20260510053718 18 55 0.0 17.7 0.00 0.00 0.00 62 319.8
20260510053217 19 55 0.0 17.7 0.00 0.00 0.00 64 319.8
20260510052716 19 55 1.6 17.7 0.00 0.00 0.00 64 319.8
20260510052215 19 55 1.6 17.7 0.00 0.00 0.00 64 320.0
20260510051714 20 55 0.0 17.7 0.00 0.00 0.00 61 319.9
20260510051213 20 55 1.6 17.7 0.00 0.00 0.00 61 320.1
20260510050157 20 55 0.0 17.7 0.00 0.00 0.00 59 320.1
20260510045140 20 55 0.0 17.7 0.00 0.00 0.00 57 320.0
20260510044123 20 56 0.0 17.7 0.00 0.00 0.00 58 320.9
20260510043622 20 56 0.0 17.7 0.00 0.00 0.00 58 320.8
20260510043121 20 56 0.0 17.7 0.00 0.00 0.00 59 320.9
20260510042620 20 56 0.0 17.7 0.00 0.00 0.00 55 320.5
20260510042119 20 56 0.0 17.7 0.00 0.00 0.00 56 319.2
20260510041618 20 56 1.6 17.7 0.00 0.00 0.00 55 317.0
20260510041117 20 56 0.0 17.7 0.00 0.00 0.00 55 311.1
20260510040617 20 55 0.0 17.7 0.00 0.00 0.00 55 298.2
20260510040116 20 39 1.6 17.7 0.00 0.00 0.00 55 280.3
20260510035100 20 46 1.6 17.7 0.00 0.00 0.00 57 277.8
20260510034559 20 29 3.2 17.7 0.00 0.00 0.00 57 265.2
20260510034059 20 23 3.2 17.7 0.00 0.00 0.00 55 281.1
20260510033559 20 69 3.2 17.7 0.00 0.00 0.00 56 314.9
20260510032543 21 23 0.0 17.7 0.00 0.00 0.00 58 225.9
20260510030454 21 23 0.0 17.7 0.00 0.00 0.00 54 233.9
20260510025953 21 23 0.0 17.7 0.00 0.00 0.00 54 240.9
20260510025452 22 23 0.0 17.7 0.00 0.00 0.00 53 254.8
20260510024951 22 29 1.6 17.7 0.00 0.00 0.00 53 281.8
20260510023418 22 33 3.2 17.7 0.00 0.00 0.00 50 308.0
20260510020813 22 47 4.8 17.7 0.00 0.00 0.00 51 829.6
20260510020313 22 300 3.2 17.7 0.00 0.00 0.00 53 1175.5
20260510015811 22 357 1.6 17.7 0.00 0.00 0.00 55 1225.1
20260510014756 23 357 1.6 17.7 0.00 0.00 0.00 55 1224.8
20260510014254 23 357 1.6 17.7 0.00 0.00 0.00 56 1224.5
20260510013754 23 357 0.0 17.7 0.00 0.00 0.00 54 1223.4
20260510013252 23 357 0.0 17.7 0.00 0.00 0.00 54 1222.5
20260510012752 23 357 0.0 17.7 0.00 0.00 0.00 52 1222.4
20260510012250 24 358 1.6 17.7 0.00 0.00 0.00 52 1224.5
20260510011750 24 358 0.0 17.7 0.00 0.00 0.00 51 1225.7
20260510011248 25 358 0.0 17.7 0.00 0.00 0.00 49 1225.1
20260510010232 25 358 0.0 17.7 0.00 0.00 0.00 50 1223.6
20260510005731 26 358 0.0 17.7 0.00 0.00 0.00 52 1223.7
20260510005230 26 358 0.0 17.7 0.00 0.00 0.00 50 1224.1
20260510004729 26 358 0.0 17.7 0.00 0.00 0.00 49 1223.8
20260510004229 26 358 0.0 17.7 0.00 0.00 0.00 48 1222.7
20260510003729 26 358 0.0 17.7 0.00 0.00 0.00 45 1220.8
20260510003228 27 358 0.0 17.7 0.00 0.00 0.00 42 1218.5
20260510002210 27 358 0.0 17.7 0.00 0.00 0.00 42 1212.8
20260510000638 27 358 1.6 17.7 0.00 0.00 0.00 38 1163.0
20260510000137 28 0 0.0 17.7 0.00 0.00 0.00 38 1107.8
20260509235636 28 0 0.0 17.7 0.00 0.00 0.00 38 997.4
20260509234620 28 0 3.2 17.7 0.00 0.00 0.00 35 909.2
20260509234119 28 358 1.6 17.7 0.00 0.00 0.00 34 827.8
20260509233102 29 357 3.2 17.7 0.00 0.00 0.00 34 292.9
20260509232601 29 1 3.2 17.7 0.00 0.00 0.00 33 240.7
20260509232100 29 0 0.0 17.7 0.00 0.00 0.00 31 298.0
20260509231559 29 1 1.6 17.7 0.00 0.00 0.00 33 425.4
20260509231058 29 3 1.6 17.7 0.00 0.00 0.00 32 672.6
20260509230557 29 319 3.2 17.7 0.00 0.00 0.00 33 1004.3
20260509225540 29 299 0.0 17.7 0.00 0.00 0.00 34 1012.0
20260509225040 29 297 0.0 17.7 0.00 0.00 0.00 32 978.4
20260509224539 28 259 0.0 17.7 0.00 0.00 0.00 32 928.4
20260509224038 28 257 0.0 17.7 0.00 0.00 0.00 35 923.9
20260509223537 28 256 0.0 17.7 0.00 0.00 0.00 34 925.3
20260509223036 28 256 0.0 17.7 0.00 0.00 0.00 32 931.0
20260509222535 28 256 0.0 17.7 0.00 0.00 0.00 32 942.8
20260509222036 28 290 1.6 17.7 0.00 0.00 0.00 32 971.4
20260509221533 28 283 1.6 17.7 0.00 0.00 0.00 32 927.9
20260509221032 28 25 1.6 17.7 0.00 0.00 0.00 33 809.0
20260509220531 28 302 0.0 17.7 0.00 0.00 0.00 32 1022.7
20260509220030 28 301 0.0 17.7 0.00 0.00 0.00 33 987.1
20260509215013 28 332 1.6 17.7 0.00 0.00 0.00 33 919.3
20260509214512 28 345 0.0 17.7 0.00 0.00 0.00 34 977.6
20260509214012 28 314 0.0 17.7 0.00 0.00 0.00 33 1058.0
20260509213511 28 297 0.0 17.7 0.00 0.00 0.00 32 1036.1
20260509213010 28 316 1.6 17.7 0.00 0.00 0.00 33 1021.8
20260509212509 28 3 1.6 17.7 0.00 0.00 0.00 32 934.4
20260509212008 28 295 1.6 17.7 0.00 0.00 0.00 32 983.2
20260509211507 28 292 3.2 17.7 0.00 0.00 0.00 31 937.0
20260509211007 28 231 4.8 17.7 0.00 0.00 0.00 30 894.7
20260509210506 28 245 3.2 17.7 0.00 0.00 0.00 32 906.7
20260509210006 28 262 3.2 17.7 0.00 0.00 0.00 32 932.1
20260509205506 29 208 3.2 17.7 0.00 0.00 0.00 29 915.5
20260509205005 29 284 3.2 17.7 0.00 0.00 0.00 31 1005.1
20260509204504 30 289 3.2 17.7 0.00 0.00 0.00 34 1005.1
20260509204004 29 287 0.0 17.7 0.00 0.00 0.00 31 960.2